Location: *
(33.8649°S, 62.1526°E)
Time: 12:02:27
(UTC+00:00)

Cosmos 1674 Rocket - Pass Details

Date: 17 January 2021
Orbit: 602 x 631 km, 82.5° (Epoch: 02 March)

Event Time Altitude Azimuth Distance (km) Brightness Sun altitude
Exits shadow 23:25:04 27° 347° (NNW) 1,193 4.6 -17.2°
Maximum altitude 23:27:25 79° 264° (W) 633 3.4 -16.8°
Drops below altitude 10° 23:31:49 10° 176° (S) 1,985 6.8 -16.1°
Sets 23:34:03 0° 175° (S) 2,894 7.7 -15.8°
